2020-051D (45942 NORAD) Tracking and Keplerian Element Data

This shows tracking and keplerian element data for the satellite.

Feedback or suggestion? Click here.




ElementValue
Catalog45942
Name2020-051D
Epoch Orbit468
Epoch Day237.20319412
Epoch Year2020
RAAN313.0807
Inclination97.6022
Eccentricity0.0152661
Argument of Perigee274.1658
Mean Anonmoly136.928
Mean Motion15.60508616
Decay Rate0.00010454
L11 45942U 20051D 20237.20319412 .00010454 23540-5 75913-4 0 9990
L22 45942 97.6022 313.0807 0152661 274.1658 136.9280 15.60508616 4683

Live tracking and technical data element details for 2020-051D (NORAD 45942). 2020-051D can be tracked NOW for your location showing map with azimuth and elevation plus other details from your city location.

Track the satellite on the map from your city or location and see movement details for azimuth, elevation, latitude, longitude, range, height, and movement on the map or in text.







IsCatalogInMostPopularTable: catalog: 45942, numindb: 28
Update: records affected: 1



GetName: 45942 2020-051D

Hit Count: updated at: Sun, 06 Dec 2020 01:26:40 GMT